Location: Weatherford
(35.5260°N, 98.7070°W)
Time: 19:39:40
(UTC-05:00)

OPAL - Visible Passes

Search period start: 25 July 2016 00:00
Search period end: 04 August 2016 00:00
Orbit: 743 x 796 km, 100.2° (Epoch: 25 July)

Date Brightness Start Highest point End Pass type
(mag) Time Alt. Az. Time Alt. Az. Time Alt. Az.
25 Jul 8.5 02:59:36 10° NNE 03:03:11 40° ENE 03:03:11 40° ENE visible
25 Jul 9.2 04:39:46 10° NNW 04:42:51 17° WNW 04:43:29 16° WNW visible
26 Jul 9.6 02:25:05 10° NE 02:27:12 18° ENE 02:27:12 18° ENE visible
26 Jul 8.3 04:03:12 10° N 04:07:29 36° WNW 04:07:29 36° WNW visible
27 Jul 7.8 03:27:28 10° NNE 03:31:30 60° N 03:31:30 60° N visible
28 Jul 8.9 02:52:19 10° NNE 02:55:31 32° ENE 02:55:31 32° ENE visible
28 Jul 9.0 04:31:55 10° NNW 04:35:33 21° WNW 04:35:48 21° WNW visible
29 Jul 9.9 02:18:11 10° NE 02:19:31 14° ENE 02:19:31 14° ENE visible
29 Jul 8.1 03:55:39 10° N 03:59:49 44° NW 03:59:49 44° NW visible
30 Jul 8.1 03:20:03 10° NNE 03:23:49 51° NE 03:23:49 51° NE visible
30 Jul 9.6 05:01:40 10° NW 05:03:14 11° WNW 05:04:06 11° WNW visible
31 Jul 9.3 02:45:07 10° NE 02:47:50 25° ENE 02:47:50 25° ENE visible
31 Jul 8.7 04:24:10 10° NNW 04:28:07 26° WNW 04:28:07 26° WNW visible
01 Aug 10.1 02:11:33 10° ENE 02:11:50 11° ENE 02:11:50 11° ENE visible
01 Aug 8.0 03:48:07 10° N 03:52:08 50° NNW 03:52:08 50° NNW visible
02 Aug 8.5 03:12:41 10° NNE 03:16:08 42° NE 03:16:08 42° NE visible
02 Aug 9.4 04:53:20 10° NNW 04:55:56 14° WNW 04:56:25 14° WNW visible
03 Aug 9.6 02:37:58 10° NE 02:40:08 20° ENE 02:40:08 20° ENE visible
03 Aug 8.5 04:16:31 10° N 04:20:25 31° WNW 04:20:25 31° WNW visible
